STARLINK-32693, 62437

Orbit data source: Space-Track

STARLINK-32693, 62437 is a payload satellite owned by SpaceX/Seattle (US) in LEO that was launched on Sun, 29 Dec 2024 UTC via an FALCON 9 launch vehicle from the Air Force Western Test Range (AFWTR). Payload-class satellites include a variety of spacecraft equipped with specific instruments for various scientific and technological missions. These include communications satellites like Starlink; space stations such as the ISS; scientific satellites like the Hubble; Earth observation satellites from companies like Planet Labs, Umbra, and HawkEye 360; GPS; miniature CubeSats for education and research; and military/defense satellites.

Loading next visibility...
Identifier
62437, 2024-251F
Orbit
LEO
Country
Flag of USUS
Related business
Manufacturer
SpaceX/Seattle
Mission
Operational Commercial Communications
Bus & Motor
STARLINK V2M, Unknown motor
Mass
730 kg wet, ~700 kg dry
Launch date (UTC)
2024-12-29 (1 year ago)
Launch vehicle
FALCON 9
Launch site
Air Force Western Test Range (AFWTR)
Object type
Payload
Rocket body
Debris
Shape & HBR
Box + 2 Pan, 17.7 m
Radar Cross Section
33.884 m², Large (>1 m²)

Expand to show TLE details & history
Last TLE update: 10 hours ago

TLE from 10 hours ago
0 STARLINK-32693
1 62437U 24251F   26171.41788799  .00012102  00000-0  41995-3 0  9993
2 62437  53.1571 215.4371 0001076  83.3559 276.7565 15.30208238 83715
Epoch: 2026-06-20T10:01Z
TLE epoch observation values (Epoch: 2026-06-20T10:01:45.522Z)
Latitude
0.00005°
Longitude
156.36466°
Altitude
476.003 km
Speed
7.629 km/s
True Right ascension
14h 21m 44s
True Declination
0° 00' 00"
Sunlit
Object was in full shadow at epoch
Visualization orbit readout
Latitude
Unknown
Longitude
Unknown
Altitude
Unknown
Speed
Unknown
Apparent Right ascension
Unknown
Apparent Declination
Unknown
Sunlit
N/A
Visualization observer readout
Local Sidereal Time
07:13:35
Azimuth
Unknown
Elevation
Unknown
Doppler factor
Unknown
Orbital elements
Apogee altitude
476.185 km
Perigee altitude
474.71 km
Semi-major axis
6,853.584 km
Eccentricity
0.00011
Inclination
53.1571°
RAAN
215.4371°
Arg. of periapsis
83.3559°
True anomaly
276.74426°
Mean anomaly
276.7565°
Eccentric anomaly
276.75038°
Mean motion
3.82531 °/min
Orbital period
94.11 mins
BSTAR
0.00041995
Loading maneuver chart data...
Computing Atmospheric mass density...
Loading historical data...
Loading historical data...
Loading historical data...
Loading historical data...
Loading historical data...
Loading historical data...
Loading historical data...

Documentation

Showing up to 5 results
|